Regional Weather Roundup
Issued by NWS

Home | Current Version | Previous Version | Text Only | Print | Product List | Glossary On
Versions: 1 2 3 4 5 6 7 8 9 10 11 12 13 14 15 16 17 18 19 20 21 22 23 24 25 26 27 28 29 30 31 32 33 34 35 36 37 38 39 40 41 42 43 44 45 46 47 48 49 50
000
ASUS43 KDTX 280901
RWRMI
MICHIGAN HOURLY REGIONAL WEATHER ROUNDUP
NATIONAL WEATHER SERVICE DETROIT/PONTIAC MI
500 AM EDT FRI AUG 28 2015

NOTE: "FAIR" INDICATES FEW OR NO CLOUDS BELOW 12,000 FEET WITH NO
SIGNIFICANT WEATHER AND/OR OBSTRUCTION TO VISIBILITY.

MIZ047>049-052>055-059>063-066>070-074>076-081>083-281000-
SOUTHEAST LOWER MICHIGAN

CITY           SKY/WX    TMP DP  RH WIND       PRES   REMARKS
ADRIAN         CLEAR     48  46  93 CALM      30.19R
ALMA           FOG       49  49 100 CALM      30.17S VSB 1/2
ANN ARBOR      CLEAR     43  43 100 CALM      30.18R FOG
BAD AXE        CLEAR     48  48  99 CALM      30.17S
CARO           CLEAR     48  47  97 CALM      30.17R
DETROIT CITY   CLEAR     53  50  89 CALM      30.18F
DETROIT        PTCLDY    55  51  86 CALM      30.18S
FLINT          CLEAR     49  46  90 CALM      30.18R
GROSSE ILE     CLEAR     55  52  88 CALM      30.16F
HILLSDALE      CLEAR     54  54 100 SE3       30.18S FOG
HOWELL         CLEAR     50  49  97 CALM      30.18R FOG

CITY           SKY/WX    TMP DP  RH WIND       PRES   REMARKS
JACKSON        CLEAR     50  49  96 CALM      30.18R
LAMBERTVILLE   FOG       51  49  92 CALM      30.18S VSB 1/2
LANSING        CLEAR     52  50  93 CALM      30.18R
LAPEER         FAIR      44  44 100 CALM      30.18S
MASON          CLEAR     46  45  99 CALM      30.18R
MONROE         FOG       49  49  98 CALM      30.16F VSB 1/4
MT. CLEMENS    CLEAR     52  51  97 CALM      30.16F FOG
PONTIAC        PTCLDY    49  47  93 CALM      30.17S FOG
PORT HOPE        N/A     55  51  86 SW7       30.14S
PORT HURON     FOG       45  45 100 CALM      30.18F VSB 1/2
TRI CITIES     CLOUDY    57  53  86 SW7       30.19R
MIDLAND        CLOUDY    56  54  92 CALM      30.17R
TROY           CLEAR     53  51  92 CALM      30.19F
SAGINAW HB     CLOUDY    54  52  94 SW3       30.17R
$$
MIZ043>046-050>051-056>058-064>065-071>073-077>080-281000-
SOUTHWEST LOWER MICHIGAN

CITY           SKY/WX    TMP DP  RH WIND       PRES   REMARKS
BATTLE CREEK   PTCLDY    57  53  86 S6        30.18R
BENTON HARBOR  CLEAR     57  54  89 SE7       30.15S
BIG RAPIDS     FOG       49  49  97 CALM      30.16R VSB 1/2
COLDWATER      CLEAR     52  52  99 CALM      30.17S FOG
FREMONT        FAIR      50  50 100 CALM      30.15S FOG
HOLLAND        CLEAR     53  51  93 SE5       30.16S
GRAND RAPIDS   MOCLDY    53  52  96 CALM      30.17S
IONIA          FAIR      51  51 100 CALM      30.16F
KALAMAZOO      PTCLDY    56  52  86 S5        30.18R
LUDINGTON      CLEAR     58  55  88 SE3       30.14R
MARSHALL       CLEAR     55  52  92 CALM      30.17R
MOUNT PLEASANT PTCLDY    53  50  91 CALM      30.17R FOG
MUSKEGON       CLEAR     54  50  86 SE8       30.15R
SOUTH HAVEN    CLEAR     55  53  94 CALM      30.15S
$$
MIZ016>042-281000-
NORTHERN LOWER MICHIGAN

CITY           SKY/WX    TMP DP  RH WIND       PRES   REMARKS
ALPENA         CLEAR     48  47  96 CALM      30.13R
BEAVER ISLAND  CLEAR     63  58  83 SW9       30.09S
BELLAIRE       CLEAR     48  47  97 CALM      30.13S FOG
CADILLAC       CLEAR     53  52  96 CALM      30.15S
CHARLEVOIX     CLEAR     59  58  97 S7        30.14S
FRANKFORT      CLEAR     53  53  97 CALM      30.13R FOG
GAYLORD        CLEAR     52  51  97 CALM      30.15R
GRAYLING       CLEAR     46  45  97 CALM      30.16R FOG
HARBOR SPRINGS PTCLDY    53  52  97 CALM      30.12R
HOUGHTON LAKE  CLEAR     58  56  93 SW6       30.16R
MANISTEE       CLEAR     54  48  82 CALM      30.15R
OSCODA         CLEAR     53  52  97 SW7       30.14R
PELLSTON       PTCLDY    47  46  97 CALM      30.11S FOG
ROGERS CITY    CLEAR     54  53  94 SW7       30.13R
TRAVERSE CITY  CLEAR     58  54  86 S3        30.12R
$$
MIZ007>008-015-281000-
EASTERN UPPER MICHIGAN

CITY           SKY/WX    TMP DP  RH WIND       PRES   REMARKS
KINROSS        CLOUDY    55  55 100 S5        30.09R VSB 3/4
MACKINAC ISLAN CLEAR     59  58  96 S7        30.10R
NEWBERRY       CLEAR     57  57  99 SW8       30.08R
S. S. MARIE    CLOUDY    56  54  93 CALM      30.09R
$$
MIZ004>006-011>014-085-281000-
CENTRAL UPPER MICHIGAN

CITY           SKY/WX    TMP DP  RH WIND       PRES   REMARKS
MANISTIQUE     CLEAR     60  56  89 S5        30.07S
ESCANABA       CLOUDY    59  55  88 SW8       30.06S
MENOMINEE      CLOUDY    61  55  82 SW7       30.08R
SAWYER-GWINN   MOCLDY    55  53  95 SW6       30.06R FOG
$$
MIZ001>003-009>011-084-281000-
WESTERN UPPER MICHIGAN

CITY           SKY/WX    TMP DP  RH WIND       PRES   REMARKS
IRON MOUNTAIN  MOCLDY    55  54  96 E3        30.05S
HOUGHTON       PTCLDY    57  54  89 SW3       30.00S
COPPER HARBOR    N/A     60  54  80 VRB5      29.98S
IRONWOOD       CLOUDY    64  59  82 SW6       29.99R
$$

ABBREVIATIONS USED IN REMARKS
   TC - TEMPERATURE IN CELSIUS
  WCI - WIND CHILL INDEX
   HX - HEAT INDEX
  VSB - VISIBILITY



USA.gov is the U.S. government's official web portal to all federal, state and local government web resources and services.